Torna al catalogo

LEMUR 2 EMERSONROSE

AttivoScienzaSSO
NORAD 63261·PAYLOAD·🇺🇸 United States

Lanciato Mar 15, 2025 da Vandenberg Space Force Base

Loading…

Prossimi Passaggi (prossime 24 ore)

TLE

AggiornatoSource: Space-Track

Epoca: Sep 14, 2026, 12:28 UTC

1 63261U 25052BD  26257.51962445  .00003777  00000-0  31128-3 0  9992
2 63261  97.6763 149.6138 0005305  98.9717 261.2107 14.99637091 82125

Traccia LEMUR 2 EMERSONROSE in tempo reale con AllMySat

Download on the App Store